Miscellaneous Local Product
Issued by NWS Hastings, NE

Home | Current Version | Previous Version | Text Only | Print | Product List | Glossary On
Versions: 1 2 3 4 5 6 7 8 9 10 11 12 13 14 15 16 17 18 19 20 21 22 23 24 25 26 27 28 29 30 31 32 33 34 35 36 37 38 39 40 41 42 43 44 45 46 47 48 49 50
000
AXUS43 KGID 210802
MISGRI

GID CWA HOURLY WEATHER ROUNDUP
NATIONAL WEATHER SERVICE HASTINGS NE
300 AM CDT TUE APR 21 2015

NOTE: "FAIR" INDICATES FEW OR NO CLOUDS BELOW 12,000 FEET WITH NO
SIGNIFICANT WEATHER AND/OR OBSTRUCTIONS TO VISIBILITY.

...SOUTH CENTRAL NEBRASKA...

CITY           SKY/WX    TMP DP  RH WIND       PRES   REMARKS
GRAND ISLAND   CLOUDY    43  30  60 W8        29.88S
HASTINGS       PTCLDY    38  29  70 W8        29.87F WCI  32
KEARNEY        PTCLDY    36  27  69 W7        29.89F WCI  30
ORD            CLOUDY    40  29  64 W7        29.86S
YORK           CLOUDY    43  34  70 W8        29.86S
AURORA         CLOUDY    43  32  65 W9        29.87R
LEXINGTON      CLOUDY    35  32  89 W3        29.90S
HOLDREGE       MOCLDY    36  28  74 CALM      29.90S
HEBRON         MOCLDY    41  28  60 W7        29.88S

...NEBRASKA PANHANDLE...

CITY           SKY/WX    TMP DP  RH WIND       PRES   REMARKS
CHADRON        CLEAR     26  23  88 SW5       29.92F WCI  20
ALLIANCE       CLEAR     23  20  88 W7        29.91F WCI  15
SCOTTSBLUFF    CLEAR     31  25  78 N8        29.92S WCI  23
SIDNEY         CLEAR     32  27  81 NW10      29.92S WCI  24

...WESTERN AND NORTH CENTRAL NEBRASKA...

CITY           SKY/WX    TMP DP  RH WIND       PRES   REMARKS
VALENTINE      CLEAR     32  25  75 W8        29.87F WCI  25
AINSWORTH      PTCLDY    38  26  62 W7        29.86F WCI  33
ONEILL         CLEAR     38  25  59 W10       29.84S WCI  31
BROKEN BOW     CLOUDY    42  27  55 CALM      29.88F
IMPERIAL       CLEAR     31  26  82 N7        29.91R WCI  24
NORTH PLATTE   CLEAR     28  26  92 CALM      29.90F
MCCOOK         MOCLDY    38  32  79 VRB6      29.90R WCI  33

...EASTERN NEBRASKA...

CITY           SKY/WX    TMP DP  RH WIND       PRES   REMARKS
NORFOLK        PTCLDY    40  24  53 W10       29.82R WCI  33
SO SIOUX CITY  CLEAR     36  15  42 W8        29.78S WCI  30
TEKAMAH        PTCLDY    41  22  46 W14       29.79S
COLUMBUS       CLOUDY    39  23  52 W8        29.85S WCI  34
ALBION         MOCLDY    40  22  47 NW6       29.84S
OMAHA EPPLEY   MOCLDY    46  20  35 W13       29.80R
OFFUTT AFB     CLOUDY    38  29  71 NW8       29.80S WCI  32
MILLARD        MOCLDY    44  26  48 NW3       29.81S
LINCOLN        CLOUDY    45  31  58 W5        29.86R
NEBRASKA CITY  MOCLDY    42  26  53 W9        29.82F
BEATRICE       CLOUDY    41  33  73 W6        29.85F
FALLS CITY     MOCLDY    43  30  60 SW12      29.83

...NORTHERN KANSAS...

CITY           SKY/WX    TMP DP  RH WIND       PRES   REMARKS
GOODLAND       CLEAR     39  30  70 W7        29.92F WCI  34
HILL CITY      PTCLDY    39  32  76 W6        29.89F WCI  35
NORTON         SUNNY     36  27  69 W6        29.88S WCI  31
PHILLIPSBURG   CLEAR     37  34  87 W6        29.89S WCI  33
SMITH CENTER   CLEAR     34  27  75 N6        29.89F WCI  29
BELOIT         CLEAR     34  30  86 CALM      29.88F
HAYS           PTCLDY    39  27  60 SW6       29.89F WCI  35
RUSSELL        PTCLDY    40  32  73 S8        29.87F WCI  34
CONCORDIA      CLEAR     41  28  60 W5        29.88F
SALINA         PTCLDY    47  36  65 SW5       29.88F
TOPEKA         CLOUDY    45  35  68 SW5       29.88S



USA.gov is the U.S. government's official web portal to all federal, state and local government web resources and services.